Weather History for Clinton-Sherman, OK

Change the Weather History Date:

Sunday, December 2, 2012

  Actual Average Record
Temperature  
Mean Temperature 53 °F -  
Max Temperature 70 °F 52 °F 70 °F (2012)
Min Temperature 36 °F 33 °F 21 °F (2006)
Degree Days  
Heating Degree Days 12    
Growing Degree Days 3 (Base 50)    
Moisture  
Dew Point 40 °F    
Average Humidity 60    
Maximum Humidity 89    
Minimum Humidity 25    
Precipitation  
Precipitation 0.00 in - - ()
Sea Level Pressure  
Sea Level Pressure 29.95 in    
Wind  
Wind Speed 9 mph (SSW)    
Max Wind Speed 21 mph    
Max Gust Speed -    
Visibility 10 miles    
Events      
Averages and records for this station are not official NWS values.
T = Trace of Precipitation, MM = Missing Value Source: NWS Daily Summary

Daily Weather History Graph

Daily Weather History Graph

Search for Another Location

Airport:

Trip Planner

Search our weather history database for the weather conditions in past years. The results will help you decide how hot, cold, wet, or windy it might be!

Date:

Astronomy

Dec. 02, 2012 Rise Set
Actual Time 7:28 AM CST 5:24 PM CST
Civil Twilight 7:00 AM CST 5:52 PM CST
Nautical Twilight 6:29 AM CST 6:23 PM CST
Astronomical Twilight 5:58 AM CST 6:54 PM CST
Moon 9:09 PM CST (12/2) 10:22 AM CST (12/2)
Length of Visible Light 10h 51m
Length of Day
9h 55m
Waning Gibbous, 85% of the Moon is Illuminated
Dec 2
Waning Gibbous
Dec 6
Last Quarter
Dec 13
New
Dec 19
First Quarter
Dec 28
Full

Hourly Weather History & Observations

Time (CST) Temp. Windchill Dew Point Humidity Pressure Visibility Wind Dir Wind Speed Gust Speed Precip Events Conditions
12:53 AM 46.0 °F 43.1 °F 33.1 °F 61% 29.96 in 10.0 mi North 5.8 mph - N/A   Clear
1:53 AM 39.9 °F 33.9 °F 30.9 °F 70% 29.97 in 10.0 mi NW 9.2 mph - N/A   Clear
2:53 AM 41.0 °F 36.4 °F 32.0 °F 70% 29.97 in 10.0 mi NW 6.9 mph - N/A   Clear
3:53 AM 41.0 °F 35.8 °F 35.1 °F 79% 29.97 in 10.0 mi NW 8.1 mph - N/A   Clear
4:53 AM 39.0 °F 36.8 °F 35.1 °F 86% 29.99 in 9.0 mi West 3.5 mph - N/A   Clear
5:53 AM 39.0 °F 36.8 °F 35.1 °F 86% 30.01 in 8.0 mi NW 3.5 mph - N/A   Clear
6:53 AM 36.0 °F 32.1 °F 33.1 °F 89% 30.02 in 10.0 mi NW 4.6 mph - N/A   Clear
7:53 AM 37.9 °F 35.5 °F 33.1 °F 83% 30.04 in 10.0 mi NNW 3.5 mph - N/A   Clear
8:53 AM 50.0 °F - 39.0 °F 66% 30.04 in 10.0 mi Calm Calm - N/A   Clear
9:53 AM 55.9 °F - 41.0 °F 57% 30.04 in 10.0 mi Calm Calm - N/A   Clear
10:53 AM 60.1 °F - 42.1 °F 51% 30.04 in 10.0 mi South 6.9 mph - N/A   Clear
11:53 AM 62.1 °F - 39.9 °F 44% 30.02 in 10.0 mi South 6.9 mph - N/A   Clear
12:53 PM 64.9 °F - 37.9 °F 37% 29.98 in 10.0 mi South 12.7 mph - N/A   Clear
1:53 PM 69.1 °F - 37.0 °F 31% 29.95 in 10.0 mi South 19.6 mph - N/A   Clear
2:53 PM 70.0 °F - 34.0 °F 27% 29.92 in 10.0 mi South 20.7 mph - N/A   Clear
3:53 PM 69.1 °F - 32.0 °F 25% 29.92 in 10.0 mi South 17.3 mph - N/A   Clear
4:53 PM 64.0 °F - 32.0 °F 30% 29.91 in 10.0 mi South 11.5 mph - N/A   Clear
5:53 PM 57.0 °F - 36.0 °F 45% 29.92 in 10.0 mi South 9.2 mph - N/A   Clear
6:53 PM 62.1 °F - 48.9 °F 62% 29.91 in 10.0 mi SSE 13.8 mph - N/A   Clear
7:53 PM 64.0 °F - 51.1 °F 63% 29.89 in 10.0 mi South 18.4 mph - N/A   Clear
8:53 PM 66.9 °F - 53.1 °F 61% 29.86 in 10.0 mi South 19.6 mph - N/A   Clear
9:53 PM 63.0 °F - 53.1 °F 70% 29.85 in 10.0 mi South 16.1 mph - N/A   Clear
10:53 PM 63.0 °F - 53.1 °F 70% 29.84 in 10.0 mi South 19.6 mph - N/A   Clear
11:53 PM 62.1 °F - 53.1 °F 72% 29.84 in 10.0 mi South 16.1 mph - N/A   Clear